Tracking 19794 objects as of 21-Jul-2019
HD Live streaming from Space Station
objects crossing your sky now

NOAA 16 DEB

Track NOAA 16 DEB now!
10-day predictions


NORAD ID: 41530
Int'l Code: 2000-055NE
Perigee: 722.9 km
Apogee: 859.7 km
Inclination: 98.8 °
Period: 100.5 minutes
Semi major axis: 7162 km
RCS: Unknown
Launch date: September 21, 2000
Source: United States (US)
Launch site: AIR FORCE WESTERN TEST RANGE (AFWTR)

Note: This is SATELLITE DEBRIS
aabbcc
Your satellite tracking list
Your tracking list is empty




NASA's NSSDC Master Catalog

Two Line Element Set (TLE):
1 41530U 00055NE  19201.51257246  .00001247  00000-0  45577-3 0  9993
2 41530  98.7583 299.2265 0095497 210.0014 149.5677 14.32277422169348
Source of the keplerian elements: AFSPC